Year,Month,Day,Hour,Minute,Value (Times are PST for temperature in C)
2008,07,26,00,00,18.10
2008,07,26,00,01,18.10
2008,07,26,00,02,18.10
2008,07,26,00,03,18.10
2008,07,26,00,04,18.10
2008,07,26,00,05,18.10
2008,07,26,00,06,18.20
2008,07,26,00,07,18.20
2008,07,26,00,08,18.30
2008,07,26,00,09,18.30
2008,07,26,00,10,18.30
2008,07,26,00,11,18.30
2008,07,26,00,12,18.40
2008,07,26,00,13,18.40
2008,07,26,00,14,18.40
2008,07,26,00,15,18.50
2008,07,26,00,16,18.50
2008,07,26,00,17,18.60
2008,07,26,00,18,18.60
2008,07,26,00,19,18.60
2008,07,26,00,20,18.70
2008,07,26,00,21,18.70
2008,07,26,00,22,18.60
2008,07,26,00,23,18.60
2008,07,26,00,24,18.60
2008,07,26,00,25,18.60
2008,07,26,00,26,18.50
2008,07,26,00,27,18.50
2008,07,26,00,28,18.50
2008,07,26,00,29,18.50
2008,07,26,00,30,18.50
2008,07,26,00,31,18.50
2008,07,26,00,32,18.50
2008,07,26,00,33,18.50
2008,07,26,00,34,18.50
2008,07,26,00,35,18.50
2008,07,26,00,36,18.50
2008,07,26,00,37,18.50
2008,07,26,00,38,18.50
2008,07,26,00,39,18.50
2008,07,26,00,40,18.50
2008,07,26,00,41,18.50
2008,07,26,00,42,18.50
2008,07,26,00,43,18.50
2008,07,26,00,44,18.50
2008,07,26,00,45,18.50
2008,07,26,00,46,18.50
2008,07,26,00,47,18.40
2008,07,26,00,48,18.40
2008,07,26,00,49,18.40
2008,07,26,00,50,18.40
2008,07,26,00,51,18.40
2008,07,26,00,52,18.30
2008,07,26,00,53,18.30
2008,07,26,00,54,18.30
2008,07,26,00,55,18.30
2008,07,26,00,56,18.20
2008,07,26,00,57,18.20
2008,07,26,00,58,18.20
2008,07,26,00,59,18.20
2008,07,26,01,00,18.20
2008,07,26,01,01,18.10
2008,07,26,01,02,18.10
2008,07,26,01,03,18.10
2008,07,26,01,04,18.00
2008,07,26,01,05,18.00
2008,07,26,01,06,17.90
2008,07,26,01,07,17.90
2008,07,26,01,08,17.90
2008,07,26,01,09,17.80
2008,07,26,01,10,17.80
2008,07,26,01,11,17.80
2008,07,26,01,12,17.80
2008,07,26,01,13,17.80
2008,07,26,01,14,17.80
2008,07,26,01,15,17.80
2008,07,26,01,16,17.70
2008,07,26,01,17,17.70
2008,07,26,01,18,17.70
2008,07,26,01,19,17.70
2008,07,26,01,20,17.70
2008,07,26,01,21,17.70
2008,07,26,01,22,17.70
2008,07,26,01,23,17.70
2008,07,26,01,24,17.70
2008,07,26,01,25,17.70
2008,07,26,01,26,17.70
2008,07,26,01,27,17.70
2008,07,26,01,28,17.70
2008,07,26,01,29,17.70
2008,07,26,01,30,17.70
2008,07,26,01,31,17.60
2008,07,26,01,32,17.60
2008,07,26,01,33,17.60
2008,07,26,01,34,17.60
2008,07,26,01,35,17.60
2008,07,26,01,36,17.60
2008,07,26,01,37,17.60
2008,07,26,01,38,17.60
2008,07,26,01,39,17.60
2008,07,26,01,40,17.60
2008,07,26,01,41,17.60
2008,07,26,01,42,17.50
2008,07,26,01,43,17.50
2008,07,26,01,44,17.50
2008,07,26,01,45,17.40
2008,07,26,01,46,17.40
2008,07,26,01,47,17.40
2008,07,26,01,48,17.40
2008,07,26,01,49,17.40
2008,07,26,01,50,17.40
2008,07,26,01,51,17.40
2008,07,26,01,52,17.40
2008,07,26,01,53,17.40
2008,07,26,01,54,17.40
2008,07,26,01,55,17.40
2008,07,26,01,56,17.40
2008,07,26,01,57,17.40
2008,07,26,01,58,17.40
2008,07,26,01,59,17.40
2008,07,26,02,00,17.40
2008,07,26,02,01,17.40
2008,07,26,02,02,17.40
2008,07,26,02,03,17.40
2008,07,26,02,04,17.40
2008,07,26,02,05,17.40
2008,07,26,02,06,17.40
2008,07,26,02,07,17.30
2008,07,26,02,08,17.30
2008,07,26,02,09,17.30
2008,07,26,02,10,17.30
2008,07,26,02,11,17.30
2008,07,26,02,12,17.30
2008,07,26,02,13,17.30
2008,07,26,02,14,17.30
2008,07,26,02,15,17.30
2008,07,26,02,16,17.30
2008,07,26,02,17,17.30
2008,07,26,02,18,17.30
2008,07,26,02,19,17.30
2008,07,26,02,20,17.30
2008,07,26,02,21,17.30
2008,07,26,02,22,17.30
2008,07,26,02,23,17.30
2008,07,26,02,24,17.30
2008,07,26,02,25,17.30
2008,07,26,02,26,17.20
2008,07,26,02,27,17.20
2008,07,26,02,28,17.20
2008,07,26,02,29,17.10
2008,07,26,02,30,17.10
2008,07,26,02,31,17.00
2008,07,26,02,32,17.00
2008,07,26,02,33,16.90
2008,07,26,02,34,16.90
2008,07,26,02,35,16.80
2008,07,26,02,36,16.80
2008,07,26,02,37,16.70
2008,07,26,02,38,16.70
2008,07,26,02,39,16.70
2008,07,26,02,40,16.70
2008,07,26,02,41,16.60
2008,07,26,02,42,16.60
2008,07,26,02,43,16.60
2008,07,26,02,44,16.60
2008,07,26,02,45,16.60
2008,07,26,02,46,16.60
2008,07,26,02,47,16.60
2008,07,26,02,48,16.60
2008,07,26,02,49,16.60
2008,07,26,02,50,16.60
2008,07,26,02,51,16.60
2008,07,26,02,52,16.60
2008,07,26,02,53,16.50
2008,07,26,02,54,16.50
2008,07,26,02,55,16.40
2008,07,26,02,56,16.40
2008,07,26,02,57,16.40
2008,07,26,02,58,16.30
2008,07,26,02,59,16.30
2008,07,26,03,00,16.30
2008,07,26,03,01,16.30
2008,07,26,03,02,16.30
2008,07,26,03,03,16.20
2008,07,26,03,04,16.20
2008,07,26,03,05,16.20
2008,07,26,03,06,16.20
2008,07,26,03,07,16.20
2008,07,26,03,08,16.10
2008,07,26,03,09,16.10
2008,07,26,03,10,16.10
2008,07,26,03,11,16.10
2008,07,26,03,12,16.10
2008,07,26,03,13,16.10
2008,07,26,03,14,16.00
2008,07,26,03,15,16.00
2008,07,26,03,16,15.90
2008,07,26,03,17,15.90
2008,07,26,03,18,15.90
2008,07,26,03,19,15.90
2008,07,26,03,20,15.80
2008,07,26,03,21,15.80
2008,07,26,03,22,15.80
2008,07,26,03,23,15.80
2008,07,26,03,24,15.70
2008,07,26,03,25,15.70
2008,07,26,03,26,15.70
2008,07,26,03,27,15.70
2008,07,26,03,28,15.70
2008,07,26,03,29,15.70
2008,07,26,03,30,15.60
2008,07,26,03,31,15.60
2008,07,26,03,32,15.60
2008,07,26,03,33,15.60
2008,07,26,03,34,15.60
2008,07,26,03,35,15.60
2008,07,26,03,36,15.60
2008,07,26,03,37,15.70
2008,07,26,03,38,15.70
2008,07,26,03,39,15.70
2008,07,26,03,40,15.70
2008,07,26,03,41,15.80
2008,07,26,03,42,15.80
2008,07,26,03,43,15.80
2008,07,26,03,44,15.80
2008,07,26,03,45,15.80
2008,07,26,03,46,15.80
2008,07,26,03,47,15.80
2008,07,26,03,48,15.80
2008,07,26,03,49,15.80
2008,07,26,03,50,15.80
2008,07,26,03,51,15.80
2008,07,26,03,52,15.80
2008,07,26,03,53,15.70
2008,07,26,03,54,15.70
2008,07,26,03,55,15.70
2008,07,26,03,56,15.70
2008,07,26,03,57,15.60
2008,07,26,03,58,15.60
2008,07,26,03,59,15.50
2008,07,26,04,00,15.50
2008,07,26,04,01,15.50
2008,07,26,04,02,15.40
2008,07,26,04,03,15.40
2008,07,26,04,04,15.30
2008,07,26,04,05,15.30
2008,07,26,04,06,15.30
2008,07,26,04,07,15.20
2008,07,26,04,08,15.20
2008,07,26,04,09,15.10
2008,07,26,04,10,15.00
2008,07,26,04,11,15.00
2008,07,26,04,12,15.00
2008,07,26,04,13,15.00
2008,07,26,04,14,15.00
2008,07,26,04,15,15.00
2008,07,26,04,16,15.00
2008,07,26,04,17,14.90
2008,07,26,04,18,14.80
2008,07,26,04,19,14.80
2008,07,26,04,20,14.80
2008,07,26,04,21,14.70
2008,07,26,04,22,14.70
2008,07,26,04,23,14.70
2008,07,26,04,24,14.60
2008,07,26,04,25,14.60
2008,07,26,04,26,14.60
2008,07,26,04,27,14.50
2008,07,26,04,28,14.50
2008,07,26,04,29,14.50
2008,07,26,04,30,14.40
2008,07,26,04,31,14.40
2008,07,26,04,32,14.40
2008,07,26,04,33,14.40
2008,07,26,04,34,14.30
2008,07,26,04,35,14.30
2008,07,26,04,36,14.30
2008,07,26,04,37,14.30
2008,07,26,04,38,14.30
2008,07,26,04,39,14.30
2008,07,26,04,40,14.20
2008,07,26,04,41,14.20
2008,07,26,04,42,14.20
2008,07,26,04,43,14.20
2008,07,26,04,44,14.20
2008,07,26,04,45,14.20
2008,07,26,04,46,14.20
2008,07,26,04,47,14.20
2008,07,26,04,48,14.10
2008,07,26,04,49,14.10
2008,07,26,04,50,14.10
2008,07,26,04,51,14.10
2008,07,26,04,52,14.10
2008,07,26,04,53,14.10
2008,07,26,04,54,14.00
2008,07,26,04,55,14.00
2008,07,26,04,56,14.00
2008,07,26,04,57,14.00
2008,07,26,04,58,14.00
2008,07,26,04,59,14.00
2008,07,26,05,00,14.00
2008,07,26,05,01,14.00
2008,07,26,05,02,14.00
2008,07,26,05,03,14.00
2008,07,26,05,04,14.00
2008,07,26,05,05,13.90
2008,07,26,05,06,13.90
2008,07,26,05,07,13.90
2008,07,26,05,08,13.90
2008,07,26,05,09,13.90
2008,07,26,05,10,13.90
2008,07,26,05,11,13.90
2008,07,26,05,12,13.90
2008,07,26,05,13,13.90
2008,07,26,05,14,13.90
2008,07,26,05,15,13.90
2008,07,26,05,16,13.90
2008,07,26,05,17,13.90
2008,07,26,05,18,13.90
2008,07,26,05,19,13.80
2008,07,26,05,20,13.80
2008,07,26,05,21,13.80
2008,07,26,05,22,13.80
2008,07,26,05,23,13.80
2008,07,26,05,24,13.70
2008,07,26,05,25,13.70
2008,07,26,05,26,13.70
2008,07,26,05,27,13.70
2008,07,26,05,28,13.60
2008,07,26,05,29,13.60
2008,07,26,05,30,13.60
2008,07,26,05,31,13.50
2008,07,26,05,32,13.50
2008,07,26,05,33,13.50
2008,07,26,05,34,13.40
2008,07,26,05,35,13.40
2008,07,26,05,36,13.40
2008,07,26,05,37,13.30
2008,07,26,05,38,13.30
2008,07,26,05,39,13.30
2008,07,26,05,40,13.20
2008,07,26,05,41,13.20
2008,07,26,05,42,13.20
2008,07,26,05,43,13.20
2008,07,26,05,44,13.10
2008,07,26,05,45,13.10
2008,07,26,05,46,13.10
2008,07,26,05,47,13.00
2008,07,26,05,48,13.00
2008,07,26,05,49,13.00
2008,07,26,05,50,12.90
2008,07,26,05,51,12.90
2008,07,26,05,52,12.90
2008,07,26,05,53,12.90
2008,07,26,05,54,12.80
2008,07,26,05,55,12.80
2008,07,26,05,56,12.80
2008,07,26,05,57,12.80
2008,07,26,05,58,12.80
2008,07,26,05,59,12.70
2008,07,26,06,00,12.70
2008,07,26,06,01,12.70
2008,07,26,06,02,12.70
2008,07,26,06,03,12.70
2008,07,26,06,04,12.70
2008,07,26,06,05,12.70
2008,07,26,06,06,12.70
2008,07,26,06,07,12.70
2008,07,26,06,08,12.70
2008,07,26,06,09,12.70
2008,07,26,06,10,12.70
2008,07,26,06,11,12.60
2008,07,26,06,12,12.60
2008,07,26,06,13,12.60
2008,07,26,06,14,12.60
2008,07,26,06,15,12.60
2008,07,26,06,16,12.60
2008,07,26,06,17,12.60
2008,07,26,06,18,12.60
2008,07,26,06,19,12.60
2008,07,26,06,20,12.60
2008,07,26,06,21,12.60
2008,07,26,06,22,12.60
2008,07,26,06,23,12.60
2008,07,26,06,24,12.60
2008,07,26,06,25,12.60
2008,07,26,06,26,12.60
2008,07,26,06,27,12.60
2008,07,26,06,28,12.60
2008,07,26,06,29,12.70
2008,07,26,06,30,12.70
2008,07,26,06,31,12.70
2008,07,26,06,32,12.70
2008,07,26,06,33,12.70
2008,07,26,06,34,12.70
2008,07,26,06,35,12.70
2008,07,26,06,36,12.80
2008,07,26,06,37,12.80
2008,07,26,06,38,12.80
2008,07,26,06,39,12.80
2008,07,26,06,40,12.80
2008,07,26,06,41,12.80
2008,07,26,06,42,12.90
2008,07,26,06,43,12.90
2008,07,26,06,44,13.00
2008,07,26,06,45,13.00
2008,07,26,06,46,13.10
2008,07,26,06,47,13.10
2008,07,26,06,48,13.20
2008,07,26,06,49,13.20
2008,07,26,06,50,13.30
2008,07,26,06,51,13.30
2008,07,26,06,52,13.40
2008,07,26,06,53,13.40
2008,07,26,06,54,13.50
2008,07,26,06,55,13.60
2008,07,26,06,56,13.60
2008,07,26,06,57,13.70
2008,07,26,06,58,13.70
2008,07,26,06,59,13.70
2008,07,26,07,00,13.80
2008,07,26,07,01,13.80
2008,07,26,07,02,13.80
2008,07,26,07,03,13.90
2008,07,26,07,04,13.90
2008,07,26,07,05,13.90
2008,07,26,07,06,13.90
2008,07,26,07,07,14.00
2008,07,26,07,08,14.00
2008,07,26,07,09,14.00
2008,07,26,07,10,14.10
2008,07,26,07,11,14.10
2008,07,26,07,12,14.20
2008,07,26,07,13,14.20
2008,07,26,07,14,14.20
2008,07,26,07,15,14.30
2008,07,26,07,16,14.30
2008,07,26,07,17,14.40
2008,07,26,07,18,14.40
2008,07,26,07,19,14.40
2008,07,26,07,20,14.50
2008,07,26,07,21,14.50
2008,07,26,07,22,14.60
2008,07,26,07,23,14.60
2008,07,26,07,24,14.70
2008,07,26,07,25,14.70
2008,07,26,07,26,14.80
2008,07,26,07,27,14.80
2008,07,26,07,28,14.90
2008,07,26,07,29,14.90
2008,07,26,07,30,15.00
2008,07,26,07,31,15.00
2008,07,26,07,32,15.00
2008,07,26,07,33,15.00
2008,07,26,07,34,15.00
2008,07,26,07,35,15.00
2008,07,26,07,36,15.00
2008,07,26,07,37,15.10
2008,07,26,07,38,15.10
2008,07,26,07,39,15.20
2008,07,26,07,40,15.20
2008,07,26,07,41,15.20
2008,07,26,07,42,15.20
2008,07,26,07,43,15.30
2008,07,26,07,44,15.30
2008,07,26,07,45,15.30
2008,07,26,07,46,15.30
2008,07,26,07,47,15.30
2008,07,26,07,48,15.30
2008,07,26,07,49,15.30
2008,07,26,07,50,15.30
2008,07,26,07,51,15.30
2008,07,26,07,52,15.30
2008,07,26,07,53,15.30
2008,07,26,07,54,15.30
2008,07,26,07,55,15.30
2008,07,26,07,56,15.30
2008,07,26,07,57,15.30
2008,07,26,07,58,15.20
2008,07,26,07,59,15.20
2008,07,26,08,00,15.20
2008,07,26,08,01,15.20
2008,07,26,08,02,15.30
2008,07,26,08,03,15.30
2008,07,26,08,04,15.30
2008,07,26,08,05,15.30
2008,07,26,08,06,15.30
2008,07,26,08,07,15.30
2008,07,26,08,08,15.40
2008,07,26,08,09,15.40
2008,07,26,08,10,15.40
2008,07,26,08,11,15.50
2008,07,26,08,12,15.50
2008,07,26,08,13,15.50
2008,07,26,08,14,15.60
2008,07,26,08,15,15.60
2008,07,26,08,16,15.60
2008,07,26,08,17,15.60
2008,07,26,08,18,15.60
2008,07,26,08,19,15.60
2008,07,26,08,20,15.60
2008,07,26,08,21,15.60
2008,07,26,08,22,15.60
2008,07,26,08,23,15.60
2008,07,26,08,24,15.60
2008,07,26,08,25,15.50
2008,07,26,08,26,15.50
2008,07,26,08,27,15.50
2008,07,26,08,28,15.50
2008,07,26,08,29,15.50
2008,07,26,08,30,15.50
2008,07,26,08,31,15.50
2008,07,26,08,32,15.50
2008,07,26,08,33,15.50
2008,07,26,08,34,15.50
2008,07,26,08,35,15.60
2008,07,26,08,36,15.60
2008,07,26,08,37,15.60
2008,07,26,08,38,15.60
2008,07,26,08,39,15.50
2008,07,26,08,40,15.50
2008,07,26,08,41,15.50
2008,07,26,08,42,15.40
2008,07,26,08,43,15.40
2008,07,26,08,44,15.30
2008,07,26,08,45,15.30
2008,07,26,08,46,15.30
2008,07,26,08,47,15.30
2008,07,26,08,48,15.20
2008,07,26,08,49,15.20
2008,07,26,08,50,15.20
2008,07,26,08,51,15.20
2008,07,26,08,52,15.20
2008,07,26,08,53,15.30
2008,07,26,08,54,15.30
2008,07,26,08,55,15.30
2008,07,26,08,56,15.30
2008,07,26,08,57,15.40
2008,07,26,08,58,15.40
2008,07,26,08,59,15.40
2008,07,26,09,00,15.40
2008,07,26,09,01,15.40
2008,07,26,09,02,15.50
2008,07,26,09,03,15.60
2008,07,26,09,04,15.60
2008,07,26,09,05,15.70
2008,07,26,09,06,15.70
2008,07,26,09,07,15.70
2008,07,26,09,08,15.80
2008,07,26,09,09,15.80
2008,07,26,09,10,15.90
2008,07,26,09,11,15.90
2008,07,26,09,12,16.00
2008,07,26,09,13,16.00
2008,07,26,09,14,16.10
2008,07,26,09,15,16.10
2008,07,26,09,16,16.10
2008,07,26,09,17,16.20
2008,07,26,09,18,16.20
2008,07,26,09,19,16.20
2008,07,26,09,20,16.20
2008,07,26,09,21,16.20
2008,07,26,09,22,16.20
2008,07,26,09,23,16.20
2008,07,26,09,24,16.30
2008,07,26,09,25,16.30
2008,07,26,09,26,16.30
2008,07,26,09,27,16.30
2008,07,26,09,28,16.30
2008,07,26,09,29,16.30
2008,07,26,09,30,16.40
2008,07,26,09,31,16.40
2008,07,26,09,32,16.40
2008,07,26,09,33,16.50
2008,07,26,09,34,16.50
2008,07,26,09,35,16.50
2008,07,26,09,36,16.50
2008,07,26,09,37,16.50
2008,07,26,09,38,16.50
2008,07,26,09,39,16.40
2008,07,26,09,40,16.40
2008,07,26,09,41,16.40
2008,07,26,09,42,16.40
2008,07,26,09,43,16.40
2008,07,26,09,44,16.40
2008,07,26,09,45,16.40
2008,07,26,09,46,16.40
2008,07,26,09,47,16.40
2008,07,26,09,48,16.40
2008,07,26,09,49,16.40
2008,07,26,09,50,16.40
2008,07,26,09,51,16.40
2008,07,26,09,52,16.40
2008,07,26,09,53,16.40
2008,07,26,09,54,16.40
2008,07,26,09,55,16.40
2008,07,26,09,56,16.50
2008,07,26,09,57,16.50
2008,07,26,09,58,16.50
2008,07,26,09,59,16.50
2008,07,26,10,00,16.50
2008,07,26,10,01,16.50
2008,07,26,10,02,16.50
2008,07,26,10,03,16.50
2008,07,26,10,04,16.60
2008,07,26,10,05,16.60
2008,07,26,10,06,16.60
2008,07,26,10,07,16.50
2008,07,26,10,08,16.50
2008,07,26,10,09,16.50
2008,07,26,10,10,16.40
2008,07,26,10,11,16.40
2008,07,26,10,12,16.40
2008,07,26,10,13,16.40
2008,07,26,10,14,16.30
2008,07,26,10,15,16.30
2008,07,26,10,16,16.30
2008,07,26,10,17,16.30
2008,07,26,10,18,16.30
2008,07,26,10,19,16.30
2008,07,26,10,20,16.30
2008,07,26,10,21,16.30
2008,07,26,10,22,16.20
2008,07,26,10,23,16.20
2008,07,26,10,24,16.20
2008,07,26,10,25,16.20
2008,07,26,10,26,16.20
2008,07,26,10,27,16.20
2008,07,26,10,28,16.10
2008,07,26,10,29,16.10
2008,07,26,10,30,16.10
2008,07,26,10,31,16.10
2008,07,26,10,32,16.10
2008,07,26,10,33,16.20
2008,07,26,10,34,16.20
2008,07,26,10,35,16.20
2008,07,26,10,36,16.30
2008,07,26,10,37,16.30
2008,07,26,10,38,16.30
2008,07,26,10,39,16.40
2008,07,26,10,40,16.40
2008,07,26,10,41,16.40
2008,07,26,10,42,16.50
2008,07,26,10,43,16.50
2008,07,26,10,44,16.50
2008,07,26,10,45,16.60
2008,07,26,10,46,16.60
2008,07,26,10,47,16.60
2008,07,26,10,48,16.60
2008,07,26,10,49,16.60
2008,07,26,10,50,16.60
2008,07,26,10,51,16.60
2008,07,26,10,52,16.60
2008,07,26,10,53,16.60
2008,07,26,10,54,16.60
2008,07,26,10,55,16.60
2008,07,26,10,56,16.60
2008,07,26,10,57,16.60
2008,07,26,10,58,16.60
2008,07,26,10,59,16.70
2008,07,26,11,00,16.70
2008,07,26,11,01,16.70
2008,07,26,11,02,16.70
2008,07,26,11,03,16.70
2008,07,26,11,04,16.70
2008,07,26,11,05,16.80
2008,07,26,11,06,16.80
2008,07,26,11,07,16.80
2008,07,26,11,08,16.80
2008,07,26,11,09,16.80
2008,07,26,11,10,16.80
2008,07,26,11,11,16.80
2008,07,26,11,12,16.90
2008,07,26,11,13,16.90
2008,07,26,11,14,17.00
2008,07,26,11,15,17.00
2008,07,26,11,16,17.10
2008,07,26,11,17,17.10
2008,07,26,11,18,17.20
2008,07,26,11,19,17.20
2008,07,26,11,20,17.30
2008,07,26,11,21,17.30
2008,07,26,11,22,17.40
2008,07,26,11,23,17.40
2008,07,26,11,24,17.40
2008,07,26,11,25,17.40
2008,07,26,11,26,17.40
2008,07,26,11,27,17.40
2008,07,26,11,28,17.40
2008,07,26,11,29,17.40
2008,07,26,11,30,17.40
2008,07,26,11,31,17.40
2008,07,26,11,32,17.40
2008,07,26,11,33,17.40
2008,07,26,11,34,17.40
2008,07,26,11,35,17.40
2008,07,26,11,36,17.40
2008,07,26,11,37,17.40
2008,07,26,11,38,17.50
2008,07,26,11,39,17.50
2008,07,26,11,40,17.50
2008,07,26,11,41,17.50
2008,07,26,11,42,17.60
2008,07,26,11,43,17.60
2008,07,26,11,44,17.60
2008,07,26,11,45,17.60
2008,07,26,11,46,17.70
2008,07,26,11,47,17.70
2008,07,26,11,48,17.70
2008,07,26,11,49,17.70
2008,07,26,11,50,17.80
2008,07,26,11,51,17.80
2008,07,26,11,52,17.80
2008,07,26,11,53,17.90
2008,07,26,11,54,17.90
2008,07,26,11,55,17.90
2008,07,26,11,56,17.90
2008,07,26,11,57,17.90
2008,07,26,11,58,17.90
2008,07,26,11,59,18.00
2008,07,26,12,00,18.00
2008,07,26,12,01,18.10
2008,07,26,12,02,18.10
2008,07,26,12,03,18.10
2008,07,26,12,04,18.10
2008,07,26,12,05,18.10
2008,07,26,12,06,18.10
2008,07,26,12,07,18.10
2008,07,26,12,08,18.10
2008,07,26,12,09,18.10
2008,07,26,12,10,18.10
2008,07,26,12,11,18.20
2008,07,26,12,12,18.30
2008,07,26,12,13,18.30
2008,07,26,12,14,18.40
2008,07,26,12,15,18.50
2008,07,26,12,16,18.50
2008,07,26,12,17,18.60
2008,07,26,12,18,18.60
2008,07,26,12,19,18.60
2008,07,26,12,20,18.50
2008,07,26,12,21,18.50
2008,07,26,12,22,18.40
2008,07,26,12,23,18.40
2008,07,26,12,24,18.30
2008,07,26,12,25,18.30
2008,07,26,12,26,18.30
2008,07,26,12,27,18.20
2008,07,26,12,28,18.20
2008,07,26,12,29,18.30
2008,07,26,12,30,18.30
2008,07,26,12,31,18.40
2008,07,26,12,32,18.40
2008,07,26,12,33,18.50
2008,07,26,12,34,18.60
2008,07,26,12,35,18.70
2008,07,26,12,36,18.80
2008,07,26,12,37,18.90
2008,07,26,12,38,19.00
2008,07,26,12,39,19.10
2008,07,26,12,40,19.20
2008,07,26,12,41,19.30
2008,07,26,12,42,19.30
2008,07,26,12,43,19.40
2008,07,26,12,44,19.30
2008,07,26,12,45,19.30
2008,07,26,12,46,19.30
2008,07,26,12,47,19.30
2008,07,26,12,48,19.40
2008,07,26,12,49,19.50
2008,07,26,12,50,19.50
2008,07,26,12,51,19.50
2008,07,26,12,52,19.50
2008,07,26,12,53,19.40
2008,07,26,12,54,19.40
2008,07,26,12,55,19.40
2008,07,26,12,56,19.40
2008,07,26,12,57,19.50
2008,07,26,12,58,19.60
2008,07,26,12,59,19.70
2008,07,26,13,00,19.80
2008,07,26,13,01,19.80
2008,07,26,13,02,19.80
2008,07,26,13,03,19.80
2008,07,26,13,04,19.70
2008,07,26,13,05,19.80
2008,07,26,13,06,19.80
2008,07,26,13,07,19.80
2008,07,26,13,08,19.70
2008,07,26,13,09,19.70
2008,07,26,13,10,19.70
2008,07,26,13,11,19.60
2008,07,26,13,12,19.60
2008,07,26,13,13,19.50
2008,07,26,13,14,19.50
2008,07,26,13,15,19.40
2008,07,26,13,16,19.30
2008,07,26,13,17,19.20
2008,07,26,13,18,19.10
2008,07,26,13,19,19.10
2008,07,26,13,20,19.10
2008,07,26,13,21,19.10
2008,07,26,13,22,19.10
2008,07,26,13,23,19.10
2008,07,26,13,24,19.10
2008,07,26,13,25,19.20
2008,07,26,13,26,19.30
2008,07,26,13,27,19.30
2008,07,26,13,28,19.20
2008,07,26,13,29,19.10
2008,07,26,13,30,19.00
2008,07,26,13,31,19.00
2008,07,26,13,32,18.90
2008,07,26,13,33,18.80
2008,07,26,13,34,18.70
2008,07,26,13,35,18.60
2008,07,26,13,36,18.60
2008,07,26,13,37,18.60
2008,07,26,13,38,18.60
2008,07,26,13,39,18.60
2008,07,26,13,40,18.60
2008,07,26,13,41,18.60
2008,07,26,13,42,18.60
2008,07,26,13,43,18.50
2008,07,26,13,44,18.40
2008,07,26,13,45,18.40
2008,07,26,13,46,18.40
2008,07,26,13,47,18.40
2008,07,26,13,48,18.40
2008,07,26,13,49,18.40
2008,07,26,13,50,18.40
2008,07,26,13,51,18.50
2008,07,26,13,52,18.50
2008,07,26,13,53,18.50
2008,07,26,13,54,18.60
2008,07,26,13,55,18.70
2008,07,26,13,56,18.80
2008,07,26,13,57,18.90
2008,07,26,13,58,19.10
2008,07,26,13,59,19.20
2008,07,26,14,00,19.30
2008,07,26,14,01,19.50
2008,07,26,14,02,19.60
2008,07,26,14,03,19.70
2008,07,26,14,04,19.80
2008,07,26,14,05,19.90
2008,07,26,14,06,20.00
2008,07,26,14,07,20.00
2008,07,26,14,08,20.00
2008,07,26,14,09,19.90
2008,07,26,14,10,19.90
2008,07,26,14,11,20.00
2008,07,26,14,12,20.00
2008,07,26,14,13,19.90
2008,07,26,14,14,20.00
2008,07,26,14,15,20.00
2008,07,26,14,16,20.10
2008,07,26,14,17,20.10
2008,07,26,14,18,20.20
2008,07,26,14,19,20.30
2008,07,26,14,20,20.40
2008,07,26,14,21,20.40
2008,07,26,14,22,20.40
2008,07,26,14,23,20.40
2008,07,26,14,24,20.40
2008,07,26,14,25,20.40
2008,07,26,14,26,20.40
2008,07,26,14,27,20.40
2008,07,26,14,28,20.40
2008,07,26,14,29,20.50
2008,07,26,14,30,20.60
2008,07,26,14,31,20.60
2008,07,26,14,32,20.60
2008,07,26,14,33,20.60
2008,07,26,14,34,20.60
2008,07,26,14,35,20.70
2008,07,26,14,36,20.80
2008,07,26,14,37,20.80
2008,07,26,14,38,20.90
2008,07,26,14,39,21.10
2008,07,26,14,40,21.20
2008,07,26,14,41,21.40
2008,07,26,14,42,21.60
2008,07,26,14,43,21.80
2008,07,26,14,44,21.80
2008,07,26,14,45,21.80
2008,07,26,14,46,21.80
2008,07,26,14,47,21.80
2008,07,26,14,48,21.80
2008,07,26,14,49,21.90
2008,07,26,14,50,21.90
2008,07,26,14,51,21.90
2008,07,26,14,52,21.90
2008,07,26,14,53,21.80
2008,07,26,14,54,21.70
2008,07,26,14,55,21.70
2008,07,26,14,56,21.70
2008,07,26,14,57,21.70
2008,07,26,14,58,21.80
2008,07,26,14,59,21.80
2008,07,26,15,00,21.90
2008,07,26,15,01,21.90
2008,07,26,15,02,21.90
2008,07,26,15,03,22.20
2008,07,26,15,04,22.40
2008,07,26,15,05,22.40
2008,07,26,15,06,22.40
2008,07,26,15,07,22.30
2008,07,26,15,08,22.20
2008,07,26,15,09,22.10
2008,07,26,15,10,22.20
2008,07,26,15,11,22.30
2008,07,26,15,12,22.30
2008,07,26,15,13,22.30
2008,07,26,15,14,22.10
2008,07,26,15,15,22.10
2008,07,26,15,16,22.20
2008,07,26,15,17,22.20
2008,07,26,15,18,22.30
2008,07,26,15,19,22.30
2008,07,26,15,20,22.20
2008,07,26,15,21,22.00
2008,07,26,15,22,21.80
2008,07,26,15,23,21.70
2008,07,26,15,24,21.60
2008,07,26,15,25,21.50
2008,07,26,15,26,21.40
2008,07,26,15,27,21.20
2008,07,26,15,28,21.00
2008,07,26,15,29,20.70
2008,07,26,15,30,20.50
2008,07,26,15,31,20.40
2008,07,26,15,32,20.30
2008,07,26,15,33,20.30
2008,07,26,15,34,20.30
2008,07,26,15,35,20.40
2008,07,26,15,36,20.60
2008,07,26,15,37,20.70
2008,07,26,15,38,20.80
2008,07,26,15,39,21.00
2008,07,26,15,40,21.10
2008,07,26,15,41,21.10
2008,07,26,15,42,21.30
2008,07,26,15,43,21.30
2008,07,26,15,44,21.30
2008,07,26,15,45,21.40
2008,07,26,15,46,21.50
2008,07,26,15,47,21.60
2008,07,26,15,48,21.70
2008,07,26,15,49,21.70
2008,07,26,15,50,21.80
2008,07,26,15,51,21.80
2008,07,26,15,52,21.80
2008,07,26,15,53,21.90
2008,07,26,15,54,21.90
2008,07,26,15,55,21.90
2008,07,26,15,56,21.90
2008,07,26,15,57,21.80
2008,07,26,15,58,21.80
2008,07,26,15,59,21.90
2008,07,26,16,00,22.00
2008,07,26,16,01,22.10
2008,07,26,16,02,22.10
2008,07,26,16,03,22.10
2008,07,26,16,04,22.20
2008,07,26,16,05,22.20
2008,07,26,16,06,22.20
2008,07,26,16,07,22.30
2008,07,26,16,08,22.40
2008,07,26,16,09,22.40
2008,07,26,16,10,22.40
2008,07,26,16,11,22.40
2008,07,26,16,12,22.30
2008,07,26,16,13,22.30
2008,07,26,16,14,22.20
2008,07,26,16,15,22.10
2008,07,26,16,16,21.90
2008,07,26,16,17,21.80
2008,07,26,16,18,21.80
2008,07,26,16,19,21.80
2008,07,26,16,20,21.80
2008,07,26,16,21,21.70
2008,07,26,16,22,21.70
2008,07,26,16,23,21.60
2008,07,26,16,24,21.50
2008,07,26,16,25,21.40
2008,07,26,16,26,21.40
2008,07,26,16,27,21.30
2008,07,26,16,28,21.20
2008,07,26,16,29,21.20
2008,07,26,16,30,21.20
2008,07,26,16,31,21.20
2008,07,26,16,32,21.20
2008,07,26,16,33,21.20
2008,07,26,16,34,21.20
2008,07,26,16,35,21.20
2008,07,26,16,36,21.20
2008,07,26,16,37,21.30
2008,07,26,16,38,21.40
2008,07,26,16,39,21.40
2008,07,26,16,40,21.50
2008,07,26,16,41,21.50
2008,07,26,16,42,21.60
2008,07,26,16,43,21.60
2008,07,26,16,44,21.60
2008,07,26,16,45,21.60
2008,07,26,16,46,21.70
2008,07,26,16,47,21.70
2008,07,26,16,48,21.70
2008,07,26,16,49,21.70
2008,07,26,16,50,21.60
2008,07,26,16,51,21.60
2008,07,26,16,52,21.60
2008,07,26,16,53,21.60
2008,07,26,16,54,21.60
2008,07,26,16,55,21.60
2008,07,26,16,56,21.50
2008,07,26,16,57,21.50
2008,07,26,16,58,21.50
2008,07,26,16,59,21.40
2008,07,26,17,00,21.40
2008,07,26,17,01,21.40
2008,07,26,17,02,21.50
2008,07,26,17,03,21.50
2008,07,26,17,04,21.50
2008,07,26,17,05,21.50
2008,07,26,17,06,21.50
2008,07,26,17,07,21.50
2008,07,26,17,08,21.50
2008,07,26,17,09,21.50
2008,07,26,17,10,21.50
2008,07,26,17,11,21.40
2008,07,26,17,12,21.40
2008,07,26,17,13,21.40
2008,07,26,17,14,21.40
2008,07,26,17,15,21.30
2008,07,26,17,16,21.30
2008,07,26,17,17,21.20
2008,07,26,17,18,21.20
2008,07,26,17,19,21.20